Location: Poprad
(49.0500°N, 20.3000°E)
Time: 09:07:08
(UTC+02:00)

Oscar 11 - Pass Details

Date: 19 April 2024
Orbit: 602 x 614 km, 97.7° (Epoch: 19 May)

Event Time Altitude Azimuth Distance (km) Brightness Sun altitude
Rises 03:53:32 0° 22° (NNE) 2,897 11.6 -15.9°
Reaches altitude 10° 03:55:58 10° 33° (NNE) 1,985 10.8 -15.6°
Maximum altitude 03:59:46 30° 95° (E) 1,112 8.8 -15.1°
Drops below altitude 10° 04:03:33 10° 157° (SSE) 1,964 9.5 -14.6°
Sets 04:05:56 0° 168° (SSE) 2,861 10.2 -14.3°
